| time (UTC) | temp F | wind direction | speed knots | gust knots | rain 1hr in | rain 24hr in | rain mn in | humidity % | barometer mb |
| 20260504220946 | 80 | 269 | 3.5 | 3.5 | 0.00 | 0.00 | 0.00 | 42 | 1012.1 |
| 20260504220442 | 79 | 239 | 4.3 | 6.1 | 0.00 | 0.00 | 0.00 | 41 | 1011.9 |
| 20260504215939 | 79 | 220 | 2.6 | 2.6 | 0.00 | 0.00 | 0.00 | 42 | 1012.2 |
| 20260504215436 | 79 | 255 | 3.5 | 7.8 | 0.00 | 0.00 | 0.00 | 44 | 1012.2 |
| 20260504214933 | 80 | 287 | 7.8 | 9.6 | 0.00 | 0.00 | 0.00 | 42 | 1012.2 |
| 20260504214429 | 80 | 276 | 5.2 | 7.0 | 0.00 | 0.00 | 0.00 | 40 | 1012.2 |
| 20260504213926 | 80 | 269 | 4.3 | 8.7 | 0.00 | 0.00 | 0.00 | 42 | 1012.3 |
| 20260504213422 | 80 | 311 | 13.0 | 20.0 | 0.00 | 0.00 | 0.00 | 40 | 1012.3 |
| 20260504212920 | 80 | 286 | 7.0 | 12.2 | 0.00 | 0.00 | 0.00 | 41 | 1012.2 |
| 20260504212415 | 80 | 266 | 6.1 | 8.7 | 0.00 | 0.00 | 0.00 | 42 | 1012.3 |
| 20260504211913 | 80 | 269 | 5.2 | 9.6 | 0.00 | 0.00 | 0.00 | 40 | 1012.4 |
| 20260504211409 | 80 | 207 | 3.5 | 7.0 | 0.00 | 0.00 | 0.00 | 42 | 1012.4 |
| 20260504210907 | 80 | 285 | 6.1 | 7.8 | 0.00 | 0.00 | 0.00 | 40 | 1012.6 |
| 20260504210403 | 81 | 219 | 4.3 | 9.6 | 0.00 | 0.00 | 0.00 | 39 | 1012.6 |
| 20260504205900 | 80 | 268 | 6.1 | 9.6 | 0.00 | 0.00 | 0.00 | 41 | 1012.6 |
| 20260504205358 | 81 | 228 | 3.5 | 5.2 | 0.00 | 0.00 | 0.00 | 42 | 1012.7 |
| 20260504204856 | 80 | 228 | 4.3 | 7.8 | 0.00 | 0.00 | 0.00 | 41 | 1012.6 |
| 20260504204354 | 81 | 245 | 5.2 | 7.0 | 0.00 | 0.00 | 0.00 | 42 | 1012.8 |
| 20260504203854 | 81 | 183 | 2.6 | 5.2 | 0.00 | 0.00 | 0.00 | 42 | 1012.9 |
| 20260504203350 | 80 | 242 | 3.5 | 5.2 | 0.00 | 0.00 | 0.00 | 40 | 1013.0 |
| 20260504202846 | 81 | 247 | 7.0 | 13.0 | 0.00 | 0.00 | 0.00 | 41 | 1013.1 |
| 20260504202343 | 80 | 198 | 2.6 | 5.2 | 0.00 | 0.00 | 0.00 | 44 | 1013.1 |
| 20260504201839 | 81 | 233 | 5.2 | 8.7 | 0.00 | 0.00 | 0.00 | 41 | 1013.1 |
| 20260504201337 | 81 | 190 | 2.6 | 6.1 | 0.00 | 0.00 | 0.00 | 41 | 1013.2 |
| 20260504200834 | 81 | 220 | 3.5 | 7.8 | 0.00 | 0.00 | 0.00 | 40 | 1013.3 |
| 20260504200331 | 80 | 226 | 2.6 | 5.2 | 0.00 | 0.00 | 0.00 | 43 | 1013.4 |
| 20260504195827 | 81 | 223 | 2.6 | 7.0 | 0.00 | 0.00 | 0.00 | 39 | 1013.6 |
| 20260504195323 | 80 | 216 | 7.0 | 9.6 | 0.00 | 0.00 | 0.00 | 41 | 1013.6 |
| 20260504194820 | 80 | 213 | 6.1 | 11.3 | 0.00 | 0.00 | 0.00 | 42 | 1013.7 |
| 20260504194316 | 80 | 272 | 3.5 | 7.0 | 0.00 | 0.00 | 0.00 | 42 | 1013.7 |
| 20260504193812 | 79 | 248 | 4.3 | 8.7 | 0.00 | 0.00 | 0.00 | 43 | 1013.8 |
| 20260504193310 | 80 | 290 | 7.0 | 16.5 | 0.00 | 0.00 | 0.00 | 42 | 1013.8 |
| 20260504192808 | 78 | 224 | 2.6 | 3.5 | 0.00 | 0.00 | 0.00 | 46 | 1013.9 |
| 20260504192306 | 79 | 268 | 4.3 | 9.6 | 0.00 | 0.00 | 0.00 | 44 | 1014.0 |
| 20260504191804 | 79 | 242 | 3.5 | 7.0 | 0.00 | 0.00 | 0.00 | 44 | 1014.0 |
| 20260504191301 | 79 | 287 | 5.2 | 9.6 | 0.00 | 0.00 | 0.00 | 42 | 1014.1 |
| 20260504190756 | 79 | 226 | 3.5 | 7.8 | 0.00 | 0.00 | 0.00 | 44 | 1014.1 |
| 20260504190253 | 79 | 201 | 4.3 | 6.1 | 0.00 | 0.00 | 0.00 | 44 | 1014.3 |
| 20260504185749 | 79 | 236 | 2.6 | 7.0 | 0.00 | 0.00 | 0.00 | 43 | 1014.1 |
| 20260504185246 | 80 | 271 | 7.0 | 9.6 | 0.00 | 0.00 | 0.00 | 42 | 1014.1 |
| 20260504184742 | 80 | 238 | 7.8 | 11.3 | 0.00 | 0.00 | 0.00 | 44 | 1014.3 |
| 20260504184238 | 79 | 225 | 3.5 | 8.7 | 0.00 | 0.00 | 0.00 | 42 | 1014.1 |
| 20260504183734 | 78 | 272 | 5.2 | 9.6 | 0.00 | 0.00 | 0.00 | 44 | 1014.3 |
| 20260504183232 | 79 | 277 | 5.2 | 13.9 | 0.00 | 0.00 | 0.00 | 41 | 1014.2 |
| 20260504182730 | 79 | 285 | 5.2 | 9.6 | 0.00 | 0.00 | 0.00 | 43 | 1014.3 |
| 20260504182226 | 79 | 260 | 5.2 | 11.3 | 0.00 | 0.00 | 0.00 | 41 | 1014.5 |
| 20260504181724 | 79 | 257 | 3.5 | 7.0 | 0.00 | 0.00 | 0.00 | 45 | 1014.4 |
| 20260504181221 | 79 | 262 | 5.2 | 8.7 | 0.00 | 0.00 | 0.00 | 46 | 1014.4 |
| 20260504180720 | 79 | 299 | 2.6 | 8.7 | 0.00 | 0.00 | 0.00 | 43 | 1014.3 |
| 20260504180219 | 79 | 285 | 6.1 | 7.0 | 0.00 | 0.00 | 0.00 | 44 | 1014.7 |
| 20260504175716 | 78 | 264 | 4.3 | 7.8 | 0.00 | 0.00 | 0.00 | 42 | 1014.8 |
| 20260504175212 | 80 | 293 | 6.1 | 7.8 | 0.00 | 0.00 | 0.00 | 43 | 1014.6 |
| 20260504174711 | 78 | 208 | 4.3 | 7.8 | 0.00 | 0.00 | 0.00 | 44 | 1014.5 |
| 20260504174208 | 78 | 254 | 3.5 | 5.2 | 0.00 | 0.00 | 0.00 | 45 | 1014.7 |
| 20260504173704 | 77 | 237 | 1.7 | 7.8 | 0.00 | 0.00 | 0.00 | 47 | 1014.7 |
| 20260504173202 | 78 | 225 | 3.5 | 7.0 | 0.00 | 0.00 | 0.00 | 47 | 1014.9 |
| 20260504172658 | 78 | 270 | 3.5 | 6.1 | 0.00 | 0.00 | 0.00 | 51 | 1015.0 |
| 20260504172154 | 78 | 227 | 0.0 | 7.0 | 0.00 | 0.00 | 0.00 | 49 | 1015.1 |
| 20260504171650 | 77 | 252 | 2.6 | 7.0 | 0.00 | 0.00 | 0.00 | 48 | 1015.1 |
| 20260504171148 | 77 | 280 | 3.5 | 7.8 | 0.00 | 0.00 | 0.00 | 49 | 1015.1 |
| 20260504170644 | 76 | 267 | 3.5 | 8.7 | 0.00 | 0.00 | 0.00 | 48 | 1015.2 |
| 20260504170142 | 77 | 284 | 9.6 | 13.0 | 0.00 | 0.00 | 0.00 | 46 | 1015.5 |
| 20260504151022 | 73 | 277 | 3.5 | 6.1 | 0.00 | 0.00 | 0.00 | 55 | 1016.3 |
| 20260504150519 | 72 | 282 | 4.3 | 7.0 | 0.00 | 0.00 | 0.00 | 56 | 1016.7 |
| 20260504140847 | 67 | 224 | 0.9 | 2.6 | 0.00 | 0.00 | 0.00 | 67 | 1016.6 |
| 20260504140343 | 66 | 224 | 0.9 | 2.6 | 0.00 | 0.00 | 0.00 | 70 | 1016.6 |
| 20260504130811 | 60 | 232 | 1.7 | 2.6 | 0.00 | 0.00 | 0.00 | 79 | 1016.8 |
| 20260504130308 | 59 | 235 | 0.0 | 1.7 | 0.00 | 0.00 | 0.00 | 79 | 1016.6 |
| 20260504120231 | 54 | 239 | 0.0 | 0.0 | 0.00 | 0.00 | 0.00 | 88 | 1016.5 |
| 20260504110658 | 51 | 272 | 0.0 | 0.0 | 0.00 | 0.00 | 0.00 | 93 | 1016.0 |
| 20260504110154 | 51 | 272 | 0.0 | 0.9 | 0.00 | 0.00 | 0.00 | 93 | 1016.0 |
| 20260504100119 | 49 | 278 | 0.0 | 0.0 | 0.00 | 0.00 | 0.00 | 97 | 1016.2 |
| 20260504081512 | 49 | 278 | 0.0 | 0.0 | 0.00 | 0.00 | 0.00 | 95 | 1016.1 |
| 20260504081007 | 49 | 278 | 0.0 | 0.0 | 0.00 | 0.00 | 0.00 | 95 | 1016.0 |
| 20260504080504 | 49 | 278 | 0.0 | 0.0 | 0.00 | 0.00 | 0.00 | 94 | 1016.0 |
| 20260504050317 | 53 | 278 | 0.0 | 0.0 | 0.00 | 0.00 | 0.00 | 92 | 1017.4 |
| 20260504045814 | 53 | 278 | 0.0 | 0.0 | 0.00 | 0.00 | 0.00 | 92 | 1017.3 |
| 20260504045309 | 53 | 278 | 0.0 | 0.0 | 0.00 | 0.00 | 0.00 | 91 | 1017.2 |
| 20260504044806 | 53 | 277 | 0.0 | 0.0 | 0.00 | 0.00 | 0.00 | 91 | 1017.5 |
| 20260504044304 | 53 | 277 | 0.0 | 0.0 | 0.00 | 0.00 | 0.00 | 92 | 1017.5 |
| 20260504043800 | 53 | 277 | 0.0 | 0.0 | 0.00 | 0.00 | 0.00 | 92 | 1017.5 |
| 20260504043257 | 53 | 278 | 0.0 | 0.0 | 0.00 | 0.00 | 0.00 | 91 | 1017.7 |
| 20260504042756 | 53 | 278 | 0.0 | 0.0 | 0.00 | 0.00 | 0.00 | 91 | 1017.7 |
| 20260504042251 | 53 | 277 | 0.0 | 0.0 | 0.00 | 0.00 | 0.00 | 90 | 1017.6 |
| 20260504041748 | 53 | 277 | 0.0 | 0.0 | 0.00 | 0.00 | 0.00 | 91 | 1017.7 |
| 20260504041244 | 53 | 277 | 0.0 | 0.0 | 0.00 | 0.00 | 0.00 | 90 | 1017.7 |
| 20260504040740 | 54 | 277 | 0.0 | 0.0 | 0.00 | 0.00 | 0.00 | 90 | 1017.7 |
| 20260504040238 | 54 | 277 | 0.0 | 0.0 | 0.00 | 0.00 | 0.00 | 89 | 1017.6 |
| 20260504035734 | 54 | 277 | 0.0 | 0.0 | 0.00 | 0.00 | 0.00 | 88 | 1017.8 |
| 20260504035231 | 53 | 277 | 0.0 | 0.0 | 0.00 | 0.00 | 0.00 | 85 | 1018.0 |
| 20260504034729 | 54 | 277 | 0.0 | 0.0 | 0.00 | 0.00 | 0.00 | 85 | 1017.9 |
| 20260504034226 | 54 | 278 | 0.0 | 0.0 | 0.00 | 0.00 | 0.00 | 86 | 1018.0 |
| 20260504033724 | 54 | 278 | 0.0 | 0.0 | 0.00 | 0.00 | 0.00 | 85 | 1017.9 |
| 20260504033220 | 54 | 278 | 0.0 | 0.0 | 0.00 | 0.00 | 0.00 | 83 | 1018.0 |
| 20260504032717 | 55 | 278 | 0.0 | 0.0 | 0.00 | 0.00 | 0.00 | 83 | 1018.0 |
| 20260504032215 | 55 | 278 | 0.0 | 0.0 | 0.00 | 0.00 | 0.00 | 82 | 1018.2 |
| 20260504031711 | 55 | 278 | 0.0 | 0.0 | 0.00 | 0.00 | 0.00 | 82 | 1018.0 |
| 20260504031208 | 55 | 278 | 0.0 | 0.0 | 0.00 | 0.00 | 0.00 | 82 | 1018.2 |
| 20260504030704 | 55 | 278 | 0.0 | 0.0 | 0.00 | 0.00 | 0.00 | 81 | 1017.9 |
| 20260504030201 | 56 | 278 | 0.0 | 0.0 | 0.00 | 0.00 | 0.00 | 80 | 1018.0 |
| 20260504025657 | 56 | 278 | 0.0 | 0.0 | 0.00 | 0.00 | 0.00 | 79 | 1018.2 |
| 20260504025154 | 56 | 278 | 0.0 | 0.0 | 0.00 | 0.00 | 0.00 | 79 | 1017.8 |
| 20260504024651 | 57 | 278 | 0.0 | 0.0 | 0.00 | 0.00 | 0.00 | 78 | 1017.8 |
| 20260504024148 | 57 | 278 | 0.0 | 0.0 | 0.00 | 0.00 | 0.00 | 77 | 1017.8 |
| 20260504023645 | 58 | 278 | 0.0 | 0.0 | 0.00 | 0.00 | 0.00 | 76 | 1017.7 |
| 20260504023141 | 59 | 278 | 0.0 | 0.0 | 0.00 | 0.00 | 0.00 | 74 | 1017.7 |
| 20260504022637 | 60 | 278 | 0.0 | 0.0 | 0.00 | 0.00 | 0.00 | 70 | 1017.5 |
| 20260504022133 | 59 | 278 | 0.0 | 1.7 | 0.00 | 0.00 | 0.00 | 66 | 1017.6 |
| 20260504021632 | 59 | 279 | 0.0 | 0.0 | 0.00 | 0.00 | 0.00 | 73 | 1017.6 |
| 20260504021127 | 59 | 279 | 0.0 | 0.0 | 0.00 | 0.00 | 0.00 | 68 | 1017.6 |
| 20260504020625 | 59 | 279 | 0.0 | 0.0 | 0.00 | 0.00 | 0.00 | 67 | 1017.5 |
| 20260504020121 | 60 | 279 | 0.0 | 0.0 | 0.00 | 0.00 | 0.00 | 66 | 1017.6 |
| 20260504015617 | 59 | 279 | 0.0 | 0.0 | 0.00 | 0.00 | 0.00 | 66 | 1017.5 |
| 20260504015114 | 60 | 279 | 0.0 | 0.0 | 0.00 | 0.00 | 0.00 | 69 | 1017.6 |
| 20260504014610 | 60 | 279 | 0.0 | 0.0 | 0.00 | 0.00 | 0.00 | 64 | 1017.6 |
| 20260504014107 | 60 | 279 | 0.0 | 0.0 | 0.00 | 0.00 | 0.00 | 64 | 1017.4 |
| 20260504013604 | 61 | 279 | 0.0 | 0.0 | 0.00 | 0.00 | 0.00 | 62 | 1017.6 |
| 20260504013101 | 61 | 279 | 0.0 | 0.0 | 0.00 | 0.00 | 0.00 | 61 | 1017.4 |
| 20260504012558 | 61 | 279 | 0.0 | 0.0 | 0.00 | 0.00 | 0.00 | 63 | 1017.3 |
| 20260504012056 | 61 | 279 | 0.0 | 0.0 | 0.00 | 0.00 | 0.00 | 61 | 1017.4 |
| 20260504011553 | 62 | 279 | 0.0 | 0.0 | 0.00 | 0.00 | 0.00 | 62 | 1017.3 |
| 20260504011049 | 62 | 279 | 0.0 | 0.0 | 0.00 | 0.00 | 0.00 | 60 | 1017.4 |
| 20260504010545 | 64 | 279 | 0.0 | 0.0 | 0.00 | 0.00 | 0.00 | 58 | 1017.2 |
| 20260504010041 | 64 | 279 | 0.0 | 0.0 | 0.00 | 0.00 | 0.00 | 57 | 1017.2 |
| 20260504005538 | 64 | 278 | 0.0 | 0.0 | 0.00 | 0.00 | 0.00 | 56 | 1017.2 |
| 20260504005035 | 64 | 279 | 0.0 | 0.0 | 0.00 | 0.00 | 0.00 | 58 | 1017.3 |
| 20260504004533 | 65 | 278 | 0.0 | 0.0 | 0.00 | 0.00 | 0.00 | 58 | 1017.1 |
| 20260504004030 | 65 | 279 | 0.0 | 0.0 | 0.00 | 0.00 | 0.00 | 58 | 1017.3 |
| 20260504003526 | 66 | 279 | 0.0 | 0.0 | 0.00 | 0.00 | 0.00 | 54 | 1017.0 |
| 20260504003023 | 66 | 279 | 0.0 | 0.0 | 0.00 | 0.00 | 0.00 | 54 | 1017.1 |
| 20260504002520 | 67 | 279 | 0.0 | 0.0 | 0.00 | 0.00 | 0.00 | 56 | 1017.1 |
| 20260504002017 | 67 | 279 | 0.0 | 0.0 | 0.00 | 0.00 | 0.00 | 52 | 1017.2 |
| 20260504001515 | 67 | 279 | 0.0 | 0.0 | 0.00 | 0.00 | 0.00 | 48 | 1017.1 |
| 20260504001011 | 68 | 279 | 0.0 | 0.0 | 0.00 | 0.00 | 0.00 | 46 | 1017.3 |
| 20260504000508 | 69 | 279 | 0.0 | 0.0 | 0.00 | 0.00 | 0.00 | 45 | 1017.2 |
| 20260504000005 | 69 | 279 | 0.0 | 0.0 | 0.00 | 0.00 | 0.00 | 45 | 1017.3 |
| 20260503235503 | 70 | 279 | 0.0 | 0.0 | 0.00 | 0.00 | 0.00 | 43 | 1017.1 |
| 20260503235000 | 71 | 279 | 0.9 | 2.6 | 0.00 | 0.00 | 0.00 | 39 | 1017.1 |
| 20260503234458 | 71 | 279 | 1.7 | 3.5 | 0.00 | 0.00 | 0.00 | 39 | 1017.4 |
| 20260503233956 | 71 | 279 | 0.0 | 5.2 | 0.00 | 0.00 | 0.00 | 40 | 1017.3 |
| 20260503233452 | 71 | 275 | 3.5 | 6.1 | 0.00 | 0.00 | 0.00 | 36 | 1017.4 |
| 20260503232948 | 71 | 275 | 0.0 | 0.0 | 0.00 | 0.00 | 0.00 | 41 | 1017.6 |
| 20260503232445 | 72 | 275 | 0.0 | 1.7 | 0.00 | 0.00 | 0.00 | 40 | 1017.5 |
| 20260503231943 | 72 | 275 | 0.0 | 1.7 | 0.00 | 0.00 | 0.00 | 38 | 1017.5 |
| 20260503231440 | 72 | 275 | 0.9 | 2.6 | 0.00 | 0.00 | 0.00 | 37 | 1017.4 |
| 20260503230937 | 72 | 295 | 7.0 | 7.8 | 0.00 | 0.00 | 0.00 | 35 | 1017.5 |
| 20260503230433 | 73 | 267 | 3.5 | 5.2 | 0.00 | 0.00 | 0.00 | 35 | 1017.6 |
| 20260503225931 | 73 | 195 | 4.3 | 5.2 | 0.00 | 0.00 | 0.00 | 36 | 1017.6 |
| 20260503225427 | 74 | 235 | 1.7 | 2.6 | 0.00 | 0.00 | 0.00 | 39 | 1017.7 |
| 20260503224923 | 73 | 241 | 1.7 | 2.6 | 0.00 | 0.00 | 0.00 | 39 | 1017.7 |
| 20260503224420 | 74 | 241 | 3.5 | 5.2 | 0.00 | 0.00 | 0.00 | 37 | 1017.5 |
| 20260503223918 | 74 | 206 | 0.9 | 3.5 | 0.00 | 0.00 | 0.00 | 39 | 1017.8 |
| 20260503223416 | 74 | 276 | 2.6 | 6.1 | 0.00 | 0.00 | 0.00 | 38 | 1017.7 |
| 20260503222911 | 75 | 271 | 0.9 | 5.2 | 0.00 | 0.00 | 0.00 | 39 | 1017.7 |
| 20260503222410 | 74 | 265 | 1.7 | 3.5 | 0.00 | 0.00 | 0.00 | 38 | 1017.6 |
| 20260503221907 | 74 | 255 | 2.6 | 3.5 | 0.00 | 0.00 | 0.00 | 38 | 1017.9 |